Вернуться в каталог

COSMOS 2344 DEB

АктивенUNKNOWN
NORAD 24843·DEBRIS·🇷🇺 Russia

Запущен Jun 6, 1997 с Baikonur Cosmodrome

Loading…

Ближайшие Пролёты (ближайшие 24 часа)

TLE

СвежийSource: Space-Track

Эпоха: Sep 14, 2026, 07:58 UTC

1 24843U 97028G   26257.33195587 -.00000115  00000-0 -73045-3 0  9991
2 24843  63.3209  21.2860 1077785  46.9865 344.3225 11.10065567184354

Отслеживайте COSMOS 2344 DEB в реальном времени с AllMySat

Download on the App Store